Time,TemperatureF,DewpointF,PressureIn,WindDirection,WindDirectionDegrees,WindSpeedMPH,WindSpeedGustMPH,Humidity,HourlyPrecipIn,Conditions,Clouds,dailyrainin,SoftwareType,DateUTC
2013-06-25 00:03:00,71.4,63.8,30.33,SE,135,0.0,0.0,77,0.00,,,0.00,WUHU216HW,2013-06-25 04:03:00,
2013-06-25 00:08:00,71.4,63.8,30.33,SE,135,0.0,0.0,77,0.00,,,0.00,WUHU216HW,2013-06-25 04:08:00,
2013-06-25 00:13:00,71.4,63.8,30.33,SE,135,0.0,0.0,77,0.00,,,0.00,WUHU216HW,2013-06-25 04:13:00,
2013-06-25 00:18:00,71.2,63.6,30.33,SE,135,0.0,0.0,77,0.00,,,0.00,WUHU216HW,2013-06-25 04:18:00,
2013-06-25 00:23:00,71.2,64.0,30.33,SE,135,0.0,0.0,78,0.00,,,0.00,WUHU216HW,2013-06-25 04:23:00,
2013-06-25 00:28:00,71.2,64.0,30.33,SE,135,0.0,0.0,78,0.00,,,0.00,WUHU216HW,2013-06-25 04:28:00,
2013-06-25 00:33:00,71.0,63.8,30.33,SE,135,0.0,0.0,78,0.00,,,0.00,WUHU216HW,2013-06-25 04:33:00,
2013-06-25 00:38:00,70.8,63.6,30.34,SE,135,0.0,0.0,78,0.00,,,0.00,WUHU216HW,2013-06-25 04:38:00,
2013-06-25 00:43:00,70.8,63.6,30.34,SE,135,0.0,0.0,78,0.00,,,0.00,WUHU216HW,2013-06-25 04:43:00,
2013-06-25 00:48:00,70.7,63.4,30.33,SE,135,0.0,0.0,78,0.00,,,0.00,WUHU216HW,2013-06-25 04:48:00,
2013-06-25 00:53:00,70.5,63.2,30.34,SE,135,0.0,0.0,78,0.00,,,0.00,WUHU216HW,2013-06-25 04:53:00,
2013-06-25 00:58:00,70.5,63.2,30.34,SE,135,0.0,0.0,78,0.00,,,0.00,WUHU216HW,2013-06-25 04:58:00,
2013-06-25 01:03:00,70.5,63.2,30.34,SE,135,0.0,0.0,78,0.00,,,0.00,WUHU216HW,2013-06-25 05:03:00,
2013-06-25 01:08:00,70.3,63.8,30.34,SE,135,0.0,0.0,80,0.00,,,0.00,WUHU216HW,2013-06-25 05:08:00,
2013-06-25 01:13:00,70.1,63.6,30.34,SE,135,0.0,0.0,80,0.00,,,0.00,WUHU216HW,2013-06-25 05:13:00,
2013-06-25 01:18:00,69.9,63.5,30.34,SE,135,0.0,0.0,80,0.00,,,0.00,WUHU216HW,2013-06-25 05:18:00,
2013-06-25 01:23:00,69.9,63.5,30.34,SE,135,0.0,0.0,80,0.00,,,0.00,WUHU216HW,2013-06-25 05:23:00,
2013-06-25 01:28:00,69.9,63.5,30.34,SE,135,0.0,0.0,80,0.00,,,0.00,WUHU216HW,2013-06-25 05:28:00,
2013-06-25 01:33:00,69.9,63.5,30.34,SE,135,0.0,0.0,80,0.00,,,0.00,WUHU216HW,2013-06-25 05:33:00,
2013-06-25 01:38:00,69.8,63.3,30.34,SE,135,0.0,0.0,80,0.00,,,0.00,WUHU216HW,2013-06-25 05:38:00,
2013-06-25 01:43:00,69.8,63.3,30.34,SE,135,0.0,0.0,80,0.00,,,0.00,WUHU216HW,2013-06-25 05:43:00,
2013-06-25 01:48:00,69.6,63.1,30.33,SE,135,0.0,0.0,80,0.00,,,0.00,WUHU216HW,2013-06-25 05:48:00,
2013-06-25 01:53:00,69.6,63.1,30.34,SE,135,0.0,0.0,80,0.00,,,0.00,WUHU216HW,2013-06-25 05:53:00,
2013-06-25 01:58:00,69.6,63.1,30.34,SE,135,0.0,0.0,80,0.00,,,0.00,WUHU216HW,2013-06-25 05:58:00,
2013-06-25 02:03:00,69.6,63.4,30.34,SE,135,0.0,0.0,81,0.00,,,0.00,WUHU216HW,2013-06-25 06:03:00,
2013-06-25 02:08:00,69.4,63.3,30.34,SE,135,0.0,0.0,81,0.00,,,0.00,WUHU216HW,2013-06-25 06:08:00,
2013-06-25 02:13:00,69.6,63.4,30.34,SE,135,0.0,0.0,81,0.00,,,0.00,WUHU216HW,2013-06-25 06:13:00,
2013-06-25 02:18:00,69.2,63.5,30.34,NNE,23,0.0,0.0,82,0.00,,,0.00,WUHU216HW,2013-06-25 06:18:00,
2013-06-25 02:23:00,69.0,63.3,30.34,North,0,0.0,0.0,82,0.00,,,0.00,WUHU216HW,2013-06-25 06:23:00,
2013-06-25 02:28:00,68.9,63.5,30.33,North,0,0.0,0.0,83,0.00,,,0.00,WUHU216HW,2013-06-25 06:28:00,
2013-06-25 02:33:00,68.9,63.5,30.33,North,0,0.0,0.0,83,0.00,,,0.00,WUHU216HW,2013-06-25 06:33:00,
2013-06-25 02:38:00,68.7,63.3,30.32,North,0,0.0,0.0,83,0.00,,,0.00,WUHU216HW,2013-06-25 06:38:00,
2013-06-25 02:43:00,68.9,63.5,30.32,North,0,0.0,0.0,83,0.00,,,0.00,WUHU216HW,2013-06-25 06:43:00,
2013-06-25 02:48:00,68.9,63.5,30.32,North,0,0.0,0.0,83,0.00,,,0.00,WUHU216HW,2013-06-25 06:48:00,
2013-06-25 02:53:00,68.7,63.3,30.31,North,0,0.0,0.0,83,0.00,,,0.00,WUHU216HW,2013-06-25 06:53:00,
2013-06-25 02:58:00,68.7,63.3,30.31,North,0,0.0,0.0,83,0.00,,,0.00,WUHU216HW,2013-06-25 06:58:00,
2013-06-25 03:03:00,68.7,62.9,30.32,North,0,0.0,0.0,82,0.00,,,0.00,WUHU216HW,2013-06-25 07:03:00,
2013-06-25 03:08:00,68.5,63.1,30.32,North,0,0.0,0.0,83,0.00,,,0.00,WUHU216HW,2013-06-25 07:08:00,
2013-06-25 03:13:00,68.1,62.8,30.31,North,0,0.0,0.0,83,0.00,,,0.00,WUHU216HW,2013-06-25 07:13:00,
2013-06-25 03:18:00,68.1,62.8,30.31,North,0,0.0,0.0,83,0.00,,,0.00,WUHU216HW,2013-06-25 07:18:00,
2013-06-25 03:23:00,67.8,62.4,30.31,North,0,0.0,0.0,83,0.00,,,0.00,WUHU216HW,2013-06-25 07:23:00,
2013-06-25 03:28:00,67.8,62.4,30.31,North,0,0.0,0.0,83,0.00,,,0.00,WUHU216HW,2013-06-25 07:28:00,
2013-06-25 03:33:00,67.6,62.3,30.30,North,0,0.0,0.0,83,0.00,,,0.00,WUHU216HW,2013-06-25 07:33:00,
2013-06-25 03:38:00,67.6,62.3,30.30,North,0,0.0,0.0,83,0.00,,,0.00,WUHU216HW,2013-06-25 07:38:00,
2013-06-25 03:43:00,67.6,62.3,30.30,North,0,0.0,0.0,83,0.00,,,0.00,WUHU216HW,2013-06-25 07:43:00,
2013-06-25 03:48:00,67.2,61.9,30.30,North,0,0.0,0.0,83,0.00,,,0.00,WUHU216HW,2013-06-25 07:48:00,
2013-06-25 03:53:00,67.2,61.9,30.30,North,0,0.0,0.0,83,0.00,,,0.00,WUHU216HW,2013-06-25 07:53:00,
2013-06-25 03:58:00,67.1,61.7,30.30,North,0,0.0,0.0,83,0.00,,,0.00,WUHU216HW,2013-06-25 07:58:00,
2013-06-25 04:03:00,66.9,61.9,30.30,North,0,0.0,0.0,84,0.00,,,0.00,WUHU216HW,2013-06-25 08:03:00,
2013-06-25 04:08:00,66.9,61.9,30.30,North,0,0.0,0.0,84,0.00,,,0.00,WUHU216HW,2013-06-25 08:08:00,
2013-06-25 04:13:00,66.7,61.7,30.30,North,0,0.0,0.0,84,0.00,,,0.00,WUHU216HW,2013-06-25 08:13:00,
2013-06-25 04:18:00,66.7,61.7,30.30,North,0,0.0,0.0,84,0.00,,,0.00,WUHU216HW,2013-06-25 08:18:00,
2013-06-25 04:23:00,66.7,61.7,30.30,North,0,0.0,0.0,84,0.00,,,0.00,WUHU216HW,2013-06-25 08:23:00,
2013-06-25 04:28:00,66.5,61.5,30.30,North,0,0.0,0.0,84,0.00,,,0.00,WUHU216HW,2013-06-25 08:28:00,
2013-06-25 04:33:00,66.3,61.0,30.30,North,0,0.0,0.0,83,0.00,,,0.00,WUHU216HW,2013-06-25 08:33:00,
2013-06-25 04:38:00,66.3,61.0,30.31,North,0,0.0,0.0,83,0.00,,,0.00,WUHU216HW,2013-06-25 08:38:00,
2013-06-25 04:43:00,66.3,61.3,30.31,North,0,0.0,0.0,84,0.00,,,0.00,WUHU216HW,2013-06-25 08:43:00,
2013-06-25 04:48:00,66.0,61.0,30.31,North,0,0.0,0.0,84,0.00,,,0.00,WUHU216HW,2013-06-25 08:48:00,
2013-06-25 04:53:00,66.0,61.0,30.30,North,0,0.0,0.0,84,0.00,,,0.00,WUHU216HW,2013-06-25 08:53:00,
2013-06-25 04:58:00,66.0,61.0,30.30,North,0,0.0,0.0,84,0.00,,,0.00,WUHU216HW,2013-06-25 08:58:00,
2013-06-25 05:03:00,65.8,60.8,30.30,North,0,0.0,0.0,84,0.00,,,0.00,WUHU216HW,2013-06-25 09:03:00,
2013-06-25 05:08:00,65.8,60.8,30.30,North,0,0.0,0.0,84,0.00,,,0.00,WUHU216HW,2013-06-25 09:08:00,
2013-06-25 05:13:00,65.8,60.8,30.30,North,0,0.0,0.0,84,0.00,,,0.00,WUHU216HW,2013-06-25 09:13:00,
2013-06-25 05:18:00,65.4,60.4,30.30,North,0,0.0,0.0,84,0.00,,,0.00,WUHU216HW,2013-06-25 09:18:00,
2013-06-25 05:23:00,65.3,60.3,30.31,North,0,0.0,0.0,84,0.00,,,0.00,WUHU216HW,2013-06-25 09:23:00,
2013-06-25 05:28:00,65.3,60.3,30.30,North,0,0.0,0.0,84,0.00,,,0.00,WUHU216HW,2013-06-25 09:28:00,
2013-06-25 05:33:00,65.1,60.1,30.30,North,0,0.0,0.0,84,0.00,,,0.00,WUHU216HW,2013-06-25 09:33:00,
2013-06-25 05:38:00,65.1,60.1,30.30,North,0,0.0,0.0,84,0.00,,,0.00,WUHU216HW,2013-06-25 09:38:00,
2013-06-25 05:43:00,65.1,60.1,30.30,North,0,0.0,0.0,84,0.00,,,0.00,WUHU216HW,2013-06-25 09:43:00,
2013-06-25 05:48:00,64.9,59.9,30.30,North,0,0.0,0.0,84,0.00,,,0.00,WUHU216HW,2013-06-25 09:48:00,
2013-06-25 05:53:00,64.9,59.9,30.30,North,0,0.0,0.0,84,0.00,,,0.00,WUHU216HW,2013-06-25 09:53:00,
2013-06-25 05:58:00,64.7,59.8,30.31,North,0,0.0,0.0,84,0.00,,,0.00,WUHU216HW,2013-06-25 09:58:00,
2013-06-25 06:03:00,64.7,59.8,30.31,North,0,0.0,0.0,84,0.00,,,0.00,WUHU216HW,2013-06-25 10:03:00,
2013-06-25 06:08:00,64.5,59.6,30.32,North,0,0.0,0.0,84,0.00,,,0.00,WUHU216HW,2013-06-25 10:08:00,
2013-06-25 06:13:00,64.5,59.6,30.32,North,0,0.0,0.0,84,0.00,,,0.00,WUHU216HW,2013-06-25 10:13:00,
2013-06-25 06:18:00,64.5,59.6,30.32,North,0,0.0,0.0,84,0.00,,,0.00,WUHU216HW,2013-06-25 10:18:00,
2013-06-25 06:23:00,64.2,59.2,30.32,North,0,0.0,0.0,84,0.00,,,0.00,WUHU216HW,2013-06-25 10:23:00,
2013-06-25 06:28:00,64.2,59.2,30.32,North,0,0.0,0.0,84,0.00,,,0.00,WUHU216HW,2013-06-25 10:28:00,
2013-06-25 06:33:00,64.2,59.2,30.32,North,0,0.0,0.0,84,0.00,,,0.00,WUHU216HW,2013-06-25 10:33:00,
2013-06-25 06:38:00,64.2,59.2,30.32,North,0,0.0,0.0,84,0.00,,,0.00,WUHU216HW,2013-06-25 10:38:00,
2013-06-25 06:43:00,64.2,59.2,30.32,North,0,0.0,0.0,84,0.00,,,0.00,WUHU216HW,2013-06-25 10:43:00,
2013-06-25 06:48:00,64.2,59.6,30.33,North,0,0.0,0.0,85,0.00,,,0.00,WUHU216HW,2013-06-25 10:48:00,
2013-06-25 06:53:00,64.2,59.6,30.32,North,0,0.0,0.0,85,0.00,,,0.00,WUHU216HW,2013-06-25 10:53:00,
2013-06-25 06:58:00,64.2,59.6,30.32,North,0,0.0,0.0,85,0.00,,,0.00,WUHU216HW,2013-06-25 10:58:00,
2013-06-25 07:03:00,64.2,59.6,30.32,North,0,0.0,0.0,85,0.00,,,0.00,WUHU216HW,2013-06-25 11:03:00,
2013-06-25 07:08:00,64.2,59.6,30.33,North,0,0.0,0.0,85,0.00,,,0.00,WUHU216HW,2013-06-25 11:08:00,
2013-06-25 07:13:00,64.4,59.8,30.34,North,0,0.0,0.0,85,0.00,,,0.00,WUHU216HW,2013-06-25 11:13:00,
2013-06-25 07:18:00,64.5,60.3,30.33,North,0,0.0,0.0,86,0.00,,,0.00,WUHU216HW,2013-06-25 11:18:00,
2013-06-25 07:23:00,64.5,60.3,30.34,North,0,0.0,0.0,86,0.00,,,0.00,WUHU216HW,2013-06-25 11:23:00,
2013-06-25 07:28:00,64.5,60.3,30.34,North,0,0.0,0.0,86,0.00,,,0.00,WUHU216HW,2013-06-25 11:28:00,
2013-06-25 07:33:00,64.9,60.6,30.34,North,0,0.0,0.0,86,0.00,,,0.00,WUHU216HW,2013-06-25 11:33:00,
2013-06-25 07:38:00,65.1,60.8,30.34,North,0,0.0,0.0,86,0.00,,,0.00,WUHU216HW,2013-06-25 11:38:00,
2013-06-25 07:44:00,65.1,60.8,30.33,North,0,0.0,0.0,86,0.00,,,0.00,WUHU216HW,2013-06-25 11:44:00,
2013-06-25 07:49:00,65.3,61.3,30.33,North,0,0.0,0.0,87,0.00,,,0.00,WUHU216HW,2013-06-25 11:49:00,
2013-06-25 07:54:00,65.4,61.4,30.34,North,0,0.0,0.0,87,0.00,,,0.00,WUHU216HW,2013-06-25 11:54:00,
2013-06-25 07:59:00,65.6,61.6,30.33,North,0,0.0,0.0,87,0.00,,,0.00,WUHU216HW,2013-06-25 11:59:00,
2013-06-25 08:04:00,66.0,61.9,30.34,North,0,0.0,0.0,87,0.00,,,0.00,WUHU216HW,2013-06-25 12:04:00,
2013-06-25 08:09:00,66.0,61.9,30.34,North,0,0.0,0.0,87,0.00,,,0.00,WUHU216HW,2013-06-25 12:09:00,
2013-06-25 08:14:00,66.0,61.9,30.34,North,0,0.0,0.0,87,0.00,,,0.00,WUHU216HW,2013-06-25 12:14:00,
2013-06-25 08:19:00,66.3,62.3,30.34,North,0,0.0,0.0,87,0.00,,,0.00,WUHU216HW,2013-06-25 12:19:00,
2013-06-25 08:24:00,66.5,62.5,30.34,North,0,0.0,0.0,87,0.00,,,0.00,WUHU216HW,2013-06-25 12:24:00,
2013-06-25 08:29:00,66.7,62.7,30.34,North,0,0.0,0.0,87,0.00,,,0.00,WUHU216HW,2013-06-25 12:29:00,
2013-06-25 08:34:00,66.7,62.7,30.34,North,0,0.0,0.0,87,0.00,,,0.00,WUHU216HW,2013-06-25 12:34:00,
2013-06-25 08:39:00,66.7,62.7,30.34,North,0,0.0,0.0,87,0.00,,,0.00,WUHU216HW,2013-06-25 12:39:00,
2013-06-25 08:44:00,66.9,62.8,30.34,North,0,0.0,0.0,87,0.00,,,0.00,WUHU216HW,2013-06-25 12:44:00,
2013-06-25 08:49:00,67.1,63.0,30.34,North,0,0.0,0.0,87,0.00,,,0.00,WUHU216HW,2013-06-25 12:49:00,
2013-06-25 08:54:00,67.2,63.2,30.34,North,0,0.0,0.0,87,0.00,,,0.00,WUHU216HW,2013-06-25 12:54:00,
2013-06-25 08:59:00,67.6,63.6,30.34,North,0,0.0,0.0,87,0.00,,,0.00,WUHU216HW,2013-06-25 12:59:00,
2013-06-25 09:04:00,67.8,63.7,30.34,North,0,0.0,0.0,87,0.00,,,0.00,WUHU216HW,2013-06-25 13:04:00,
2013-06-25 09:09:00,67.8,63.7,30.34,North,0,0.0,0.0,87,0.00,,,0.00,WUHU216HW,2013-06-25 13:09:00,
2013-06-25 09:14:00,68.1,63.8,30.34,North,0,0.0,0.0,86,0.00,,,0.00,WUHU216HW,2013-06-25 13:14:00,
2013-06-25 09:19:00,68.1,63.8,30.34,North,0,0.0,0.0,86,0.00,,,0.00,WUHU216HW,2013-06-25 13:19:00,
2013-06-25 09:24:00,68.1,63.8,30.34,North,0,0.0,0.0,86,0.00,,,0.00,WUHU216HW,2013-06-25 13:24:00,
2013-06-25 09:29:00,68.3,63.9,30.34,North,0,0.0,0.0,86,0.00,,,0.00,WUHU216HW,2013-06-25 13:29:00,
2013-06-25 09:34:00,68.3,63.8,30.34,North,0,0.0,0.0,86,0.00,,,0.00,WUHU216HW,2013-06-25 13:34:00,
2013-06-25 09:39:00,68.3,63.9,30.34,North,0,0.0,0.0,86,0.00,,,0.00,WUHU216HW,2013-06-25 13:39:00,
2013-06-25 09:44:00,68.5,64.1,30.34,North,0,0.0,0.0,86,0.00,,,0.00,WUHU216HW,2013-06-25 13:44:00,
2013-06-25 09:49:00,68.7,64.3,30.34,North,0,0.0,0.0,86,0.00,,,0.00,WUHU216HW,2013-06-25 13:49:00,
2013-06-25 09:54:00,68.9,64.5,30.34,North,0,0.0,0.0,86,0.00,,,0.00,WUHU216HW,2013-06-25 13:54:00,
2013-06-25 09:59:00,69.0,64.6,30.34,North,0,0.0,0.0,86,0.00,,,0.00,WUHU216HW,2013-06-25 13:59:00,
2013-06-25 10:04:00,69.4,65.0,30.34,North,0,0.0,0.0,86,0.00,,,0.00,WUHU216HW,2013-06-25 14:04:00,
2013-06-25 10:09:00,69.6,65.1,30.34,North,0,0.0,0.0,86,0.00,,,0.00,WUHU216HW,2013-06-25 14:09:00,
2013-06-25 10:14:00,69.9,65.2,30.34,North,0,0.0,0.0,85,0.00,,,0.00,WUHU216HW,2013-06-25 14:14:00,
2013-06-25 10:19:00,70.1,65.3,30.34,North,0,0.0,0.0,85,0.00,,,0.00,WUHU216HW,2013-06-25 14:19:00,
2013-06-25 10:24:00,70.5,65.7,30.34,North,0,0.0,0.0,85,0.00,,,0.00,WUHU216HW,2013-06-25 14:24:00,
2013-06-25 10:29:00,70.8,65.7,30.34,NNW,338,0.0,0.0,84,0.00,,,0.00,WUHU216HW,2013-06-25 14:29:00,
2013-06-25 10:34:00,70.8,65.7,30.34,NNW,338,0.0,0.0,84,0.00,,,0.00,WUHU216HW,2013-06-25 14:34:00,
2013-06-25 10:39:00,71.4,65.9,30.33,NNW,338,0.0,0.0,83,0.00,,,0.00,WUHU216HW,2013-06-25 14:39:00,
2013-06-25 10:44:00,71.6,65.8,30.33,NNW,338,0.0,0.0,82,0.00,,,0.00,WUHU216HW,2013-06-25 14:44:00,
2013-06-25 10:49:00,71.7,65.9,30.34,NNW,338,0.0,0.0,82,0.00,,,0.00,WUHU216HW,2013-06-25 14:49:00,
2013-06-25 10:54:00,72.1,66.3,30.34,North,0,0.0,0.0,82,0.00,,,0.00,WUHU216HW,2013-06-25 14:54:00,
2013-06-25 10:59:00,72.3,66.5,30.34,West,270,0.0,0.0,82,0.00,,,0.00,WUHU216HW,2013-06-25 14:59:00,
2013-06-25 11:04:00,72.5,66.7,30.34,West,270,0.0,0.0,82,0.00,,,0.00,WUHU216HW,2013-06-25 15:04:00,
2013-06-25 11:09:00,72.8,66.5,30.34,WNW,293,0.0,0.0,80,0.00,,,0.00,WUHU216HW,2013-06-25 15:09:00,
2013-06-25 11:14:00,73.2,66.3,30.34,NW,315,0.0,0.0,79,0.00,,,0.00,WUHU216HW,2013-06-25 15:14:00,
2013-06-25 11:19:00,73.5,66.7,30.33,NW,315,0.0,0.0,79,0.00,,,0.00,WUHU216HW,2013-06-25 15:19:00,
2013-06-25 11:24:00,74.1,67.2,30.34,NNW,338,0.0,0.0,79,0.00,,,0.00,WUHU216HW,2013-06-25 15:24:00,
2013-06-25 11:29:00,74.3,67.0,30.33,NNW,338,0.0,0.0,78,0.00,,,0.00,WUHU216HW,2013-06-25 15:29:00,
2013-06-25 11:34:00,74.8,67.5,30.33,NW,315,0.0,0.0,78,0.00,,,0.00,WUHU216HW,2013-06-25 15:34:00,
2013-06-25 11:39:00,75.0,67.7,30.33,NW,315,0.0,0.0,78,0.00,,,0.00,WUHU216HW,2013-06-25 15:39:00,
2013-06-25 11:44:00,75.7,68.0,30.33,NW,315,0.0,0.0,77,0.00,,,0.00,WUHU216HW,2013-06-25 15:44:00,
2013-06-25 11:49:00,75.9,67.8,30.33,NW,315,0.0,0.0,76,0.00,,,0.00,WUHU216HW,2013-06-25 15:49:00,
2013-06-25 11:54:00,76.2,67.3,30.33,NW,315,0.0,0.0,74,0.00,,,0.00,WUHU216HW,2013-06-25 15:54:00,
2013-06-25 11:59:00,76.6,67.3,30.33,NW,315,0.0,0.0,73,0.00,,,0.00,WUHU216HW,2013-06-25 15:59:00,
2013-06-25 12:04:00,77.0,68.0,30.33,WNW,293,0.0,0.0,74,0.00,,,0.00,WUHU216HW,2013-06-25 16:04:00,
2013-06-25 12:09:00,77.9,68.9,30.32,West,270,0.0,0.0,74,0.00,,,0.00,WUHU216HW,2013-06-25 16:09:00,
2013-06-25 12:14:00,78.4,68.6,30.32,WNW,293,0.0,0.0,72,0.00,,,0.00,WUHU216HW,2013-06-25 16:14:00,
2013-06-25 12:19:00,78.8,68.5,30.32,NW,315,0.0,0.0,71,0.00,,,0.00,WUHU216HW,2013-06-25 16:19:00,
2013-06-25 12:24:00,79.5,69.2,30.32,NNW,338,0.0,0.0,71,0.00,,,0.00,WUHU216HW,2013-06-25 16:24:00,
2013-06-25 12:29:00,80.2,69.6,30.32,NNW,338,0.0,0.0,70,0.00,,,0.00,WUHU216HW,2013-06-25 16:29:00,
2013-06-25 12:34:00,80.7,69.6,30.32,NW,315,0.0,0.0,69,0.00,,,0.00,WUHU216HW,2013-06-25 16:34:00,
2013-06-25 12:39:00,81.5,70.3,30.32,NW,315,0.0,0.0,69,0.00,,,0.00,WUHU216HW,2013-06-25 16:39:00,
2013-06-25 12:44:00,82.0,70.3,30.32,NW,315,0.0,0.0,68,0.00,,,0.00,WUHU216HW,2013-06-25 16:44:00,
2013-06-25 12:49:00,82.4,70.2,30.32,NW,315,0.0,0.0,67,0.00,,,0.00,WUHU216HW,2013-06-25 16:49:00,
2013-06-25 12:54:00,82.9,70.7,30.31,WNW,293,0.0,0.0,67,0.00,,,0.00,WUHU216HW,2013-06-25 16:54:00,
2013-06-25 12:59:00,82.9,69.4,30.31,WNW,293,0.0,0.0,64,0.00,,,0.00,WUHU216HW,2013-06-25 16:59:00,
2013-06-25 13:04:00,82.7,69.7,30.31,WNW,293,0.0,0.0,65,0.00,,,0.00,WUHU216HW,2013-06-25 17:04:00,
2013-06-25 13:09:00,83.1,70.0,30.31,West,270,0.0,0.0,65,0.00,,,0.00,WUHU216HW,2013-06-25 17:09:00,
2013-06-25 13:14:00,83.4,70.4,30.31,ESE,113,0.0,0.0,65,0.00,,,0.00,WUHU216HW,2013-06-25 17:14:00,
2013-06-25 13:19:00,83.4,69.9,30.30,ENE,68,0.0,0.0,64,0.00,,,0.00,WUHU216HW,2013-06-25 17:19:00,
2013-06-25 13:24:00,83.6,70.1,30.30,ENE,68,0.0,0.0,64,0.00,,,0.00,WUHU216HW,2013-06-25 17:24:00,
2013-06-25 13:29:00,83.6,70.1,30.30,NE,45,0.0,0.0,64,0.00,,,0.00,WUHU216HW,2013-06-25 17:29:00,
2013-06-25 13:35:00,83.4,69.0,30.30,NE,45,0.0,0.0,62,0.00,,,0.00,WUHU216HW,2013-06-25 17:35:00,
2013-06-25 13:40:00,83.1,69.1,30.30,NE,45,0.0,0.0,63,0.00,,,0.00,WUHU216HW,2013-06-25 17:40:00,
2013-06-25 13:45:00,82.9,68.9,30.30,ENE,68,0.0,0.0,63,0.00,,,0.00,WUHU216HW,2013-06-25 17:45:00,
2013-06-25 13:50:00,82.7,68.3,30.29,NE,45,0.0,0.0,62,0.00,,,0.00,WUHU216HW,2013-06-25 17:50:00,
2013-06-25 13:55:00,82.7,68.8,30.29,NE,45,0.0,0.0,63,0.00,,,0.00,WUHU216HW,2013-06-25 17:55:00,
2013-06-25 14:00:00,82.7,68.8,30.29,NE,45,0.0,0.0,63,0.00,,,0.00,WUHU216HW,2013-06-25 18:00:00,
2013-06-25 14:05:00,82.9,68.9,30.28,NNW,338,0.0,0.0,63,0.00,,,0.00,WUHU216HW,2013-06-25 18:05:00,
2013-06-25 14:10:00,83.4,69.9,30.28,WSW,248,0.0,0.0,64,0.00,,,0.00,WUHU216HW,2013-06-25 18:10:00,
2013-06-25 14:15:00,84.0,69.6,30.27,WSW,248,0.0,0.0,62,0.00,,,0.00,WUHU216HW,2013-06-25 18:15:00,
2013-06-25 14:20:00,84.7,70.2,30.27,WSW,248,0.0,0.0,62,0.00,,,0.00,WUHU216HW,2013-06-25 18:20:00,
2013-06-25 14:25:00,85.8,70.3,30.27,NW,315,0.0,0.0,60,0.00,,,0.00,WUHU216HW,2013-06-25 18:25:00,
2013-06-25 14:30:00,86.1,69.6,30.27,NW,315,0.0,0.0,58,0.00,,,0.00,WUHU216HW,2013-06-25 18:30:00,
2013-06-25 14:35:00,85.8,69.8,30.27,NW,315,0.0,0.0,59,0.00,,,0.00,WUHU216HW,2013-06-25 18:35:00,
2013-06-25 14:40:00,85.2,67.7,30.27,NNW,338,0.0,0.0,56,0.00,,,0.00,WUHU216HW,2013-06-25 18:40:00,
2013-06-25 14:45:00,84.5,67.1,30.27,NNW,338,0.0,0.0,56,0.00,,,0.00,WUHU216HW,2013-06-25 18:45:00,
2013-06-25 14:50:00,83.8,66.9,30.28,NNW,338,0.0,0.0,57,0.00,,,0.00,WUHU216HW,2013-06-25 18:50:00,
2013-06-25 14:55:00,82.7,66.9,30.28,NNW,338,0.0,0.0,59,0.00,,,0.00,WUHU216HW,2013-06-25 18:55:00,
2013-06-25 15:00:00,82.2,66.4,30.28,NNW,338,0.0,0.0,59,0.00,,,0.00,WUHU216HW,2013-06-25 19:00:00,
2013-06-25 15:05:00,81.8,66.0,30.27,North,0,0.0,0.0,59,0.00,,,0.00,WUHU216HW,2013-06-25 19:05:00,
2013-06-25 15:10:00,81.3,66.1,30.27,North,0,0.0,0.0,60,0.00,,,0.00,WUHU216HW,2013-06-25 19:10:00,
2013-06-25 15:15:00,81.1,66.4,30.28,North,0,0.0,0.0,61,0.00,,,0.00,WUHU216HW,2013-06-25 19:15:00,
2013-06-25 15:20:00,80.4,66.2,30.28,NNW,338,0.0,0.0,62,0.00,,,0.00,WUHU216HW,2013-06-25 19:20:00,
2013-06-25 15:25:00,80.4,66.6,30.28,NNW,338,0.0,0.0,63,0.00,,,0.00,WUHU216HW,2013-06-25 19:25:00,
2013-06-25 15:30:00,80.2,66.4,30.28,NNW,338,0.0,0.0,63,0.00,,,0.00,WUHU216HW,2013-06-25 19:30:00,
2013-06-25 15:35:00,79.5,66.2,30.28,North,0,0.0,0.0,64,0.00,,,0.00,WUHU216HW,2013-06-25 19:35:00,
2013-06-25 15:40:00,79.5,66.2,30.28,North,0,0.0,0.0,64,0.00,,,0.00,WUHU216HW,2013-06-25 19:40:00,
2013-06-25 15:45:00,79.5,66.2,30.28,North,0,0.0,0.0,64,0.00,,,0.00,WUHU216HW,2013-06-25 19:45:00,
2013-06-25 15:50:00,79.5,66.2,30.28,NNW,338,0.0,0.0,64,0.00,,,0.00,WUHU216HW,2013-06-25 19:50:00,
2013-06-25 15:55:00,78.6,65.4,30.28,NNW,338,0.0,0.0,64,0.00,,,0.00,WUHU216HW,2013-06-25 19:55:00,
2013-06-25 16:00:00,78.6,65.4,30.27,North,0,0.0,0.0,65,0.00,,,0.00,WUHU216HW,2013-06-25 20:00:00,
2013-06-25 16:05:00,77.7,65.4,30.27,North,0,0.0,0.0,66,0.00,,,0.00,WUHU216HW,2013-06-25 20:05:00,
2013-06-25 16:10:00,77.7,65.4,30.27,North,0,0.0,0.0,66,0.00,,,0.00,WUHU216HW,2013-06-25 20:10:00,
2013-06-25 16:15:00,77.5,65.6,30.27,North,0,0.0,0.0,67,0.00,,,0.00,WUHU216HW,2013-06-25 20:15:00,
2013-06-25 16:20:00,77.5,65.6,30.27,North,0,0.0,0.0,67,0.00,,,0.00,WUHU216HW,2013-06-25 20:20:00,
2013-06-25 16:25:00,77.5,65.6,30.27,North,0,0.0,0.0,67,0.00,,,0.00,WUHU216HW,2013-06-25 20:25:00,
2013-06-25 16:30:00,77.5,65.6,30.28,North,0,0.0,0.0,67,0.00,,,0.00,WUHU216HW,2013-06-25 20:30:00,
2013-06-25 16:35:00,77.5,65.6,30.27,North,0,0.0,0.0,67,0.00,,,0.00,WUHU216HW,2013-06-25 20:35:00,
2013-06-25 16:40:00,77.3,65.5,30.27,North,0,0.0,0.0,67,0.00,,,0.00,WUHU216HW,2013-06-25 20:40:00,
2013-06-25 16:45:00,77.3,65.9,30.27,North,0,0.0,0.0,68,0.00,,,0.00,WUHU216HW,2013-06-25 20:45:00,
2013-06-25 16:50:00,77.3,65.9,30.26,North,0,0.0,0.0,68,0.00,,,0.00,WUHU216HW,2013-06-25 20:50:00,
2013-06-25 16:55:00,77.5,66.5,30.26,North,0,0.0,0.0,69,0.00,,,0.00,WUHU216HW,2013-06-25 20:55:00,
2013-06-25 17:00:00,77.3,66.4,30.26,North,0,0.0,0.0,69,0.00,,,0.00,WUHU216HW,2013-06-25 21:00:00,
2013-06-25 17:05:00,77.1,66.2,30.27,North,0,0.0,0.0,69,0.00,,,0.00,WUHU216HW,2013-06-25 21:05:00,
2013-06-25 17:10:00,77.1,66.2,30.26,North,0,0.0,0.0,69,0.00,,,0.00,WUHU216HW,2013-06-25 21:10:00,
2013-06-25 17:15:00,77.1,66.2,30.26,North,0,0.0,0.0,69,0.00,,,0.00,WUHU216HW,2013-06-25 21:15:00,
2013-06-25 17:20:00,76.8,66.3,30.26,North,0,0.0,0.0,70,0.00,,,0.00,WUHU216HW,2013-06-25 21:20:00,
2013-06-25 17:25:00,76.8,66.7,30.26,North,0,0.0,0.0,71,0.00,,,0.00,WUHU216HW,2013-06-25 21:25:00,
2013-06-25 17:30:00,76.6,66.5,30.26,North,0,0.0,0.0,71,0.00,,,0.00,WUHU216HW,2013-06-25 21:30:00,
2013-06-25 17:35:00,76.6,66.9,30.25,North,0,0.0,0.0,72,0.00,,,0.00,WUHU216HW,2013-06-25 21:35:00,
2013-06-25 17:40:00,76.8,67.1,30.25,North,0,0.0,0.0,72,0.00,,,0.00,WUHU216HW,2013-06-25 21:40:00,
2013-06-25 17:45:00,76.8,67.1,30.25,North,0,0.0,0.0,72,0.00,,,0.00,WUHU216HW,2013-06-25 21:45:00,
2013-06-25 17:50:00,76.8,67.1,30.25,North,0,0.0,0.0,72,0.00,,,0.00,WUHU216HW,2013-06-25 21:50:00,
2013-06-25 17:55:00,76.8,67.5,30.25,North,0,0.0,0.0,73,0.00,,,0.00,WUHU216HW,2013-06-25 21:55:00,
2013-06-25 18:00:00,76.8,67.5,30.23,North,0,0.0,0.0,73,0.00,,,0.00,WUHU216HW,2013-06-25 22:00:00,
2013-06-25 18:05:00,76.8,67.5,30.22,North,0,0.0,0.0,73,0.00,,,0.00,WUHU216HW,2013-06-25 22:05:00,
2013-06-25 18:10:00,77.0,67.6,30.22,North,0,0.0,0.0,73,0.00,,,0.00,WUHU216HW,2013-06-25 22:10:00,
2013-06-25 18:15:00,77.0,67.6,30.21,North,0,0.0,0.0,73,0.00,,,0.00,WUHU216HW,2013-06-25 22:15:00,
2013-06-25 18:20:00,77.0,67.6,30.21,North,0,0.0,0.0,73,0.00,,,0.00,WUHU216HW,2013-06-25 22:20:00,
2013-06-25 18:25:00,77.0,67.6,30.21,North,0,0.0,0.0,73,0.00,,,0.00,WUHU216HW,2013-06-25 22:25:00,
2013-06-25 18:53:00,77.9,67.7,30.23,WSW,248,0.0,0.0,71,0.00,,,0.00,WUHU216HW,2013-06-25 22:53:00,
2013-06-25 18:58:00,78.6,68.3,30.23,NNW,338,0.0,0.0,71,0.00,,,0.00,WUHU216HW,2013-06-25 22:58:00,
2013-06-25 19:03:00,78.6,68.3,30.23,WSW,248,0.0,0.0,71,0.00,,,0.00,WUHU216HW,2013-06-25 23:03:00,
2013-06-25 19:08:00,78.6,68.3,30.24,WSW,248,0.0,0.0,71,0.00,,,0.00,WUHU216HW,2013-06-25 23:08:00,
2013-06-25 19:13:00,78.6,68.0,30.24,North,0,0.0,0.0,70,0.00,,,0.00,WUHU216HW,2013-06-25 23:13:00,
2013-06-25 19:18:00,78.9,68.3,30.24,NNE,23,0.0,0.0,70,0.00,,,0.00,WUHU216HW,2013-06-25 23:18:00,
2013-06-25 19:23:00,78.9,68.3,30.24,NNE,23,0.0,0.0,70,0.00,,,0.00,WUHU216HW,2013-06-25 23:23:00,
2013-06-25 19:28:00,78.9,67.9,30.25,NNE,23,0.0,0.0,69,0.00,,,0.00,WUHU216HW,2013-06-25 23:28:00,
2013-06-25 19:33:00,78.9,68.3,30.25,NNE,23,0.0,0.0,70,0.00,,,0.00,WUHU216HW,2013-06-25 23:33:00,
2013-06-25 19:38:00,78.9,68.3,30.24,NNE,23,0.0,0.0,70,0.00,,,0.00,WUHU216HW,2013-06-25 23:38:00,
2013-06-25 19:43:00,79.1,68.5,30.24,NNE,23,0.0,0.0,70,0.00,,,0.00,WUHU216HW,2013-06-25 23:43:00,
2013-06-25 19:48:00,78.9,68.3,30.24,NNE,23,0.0,0.0,70,0.00,,,0.00,WUHU216HW,2013-06-25 23:48:00,
2013-06-25 19:53:00,78.9,68.3,30.24,NNE,23,0.0,0.0,70,0.00,,,0.00,WUHU216HW,2013-06-25 23:53:00,
2013-06-25 19:58:00,78.6,68.0,30.24,NNE,23,0.0,0.0,70,0.00,,,0.00,WUHU216HW,2013-06-25 23:58:00,
2013-06-25 20:03:00,78.6,68.3,30.25,NNE,23,0.0,0.0,71,0.00,,,0.00,WUHU216HW,2013-06-26 00:03:00,
2013-06-25 20:08:00,78.6,68.3,30.24,NNE,23,0.0,0.0,71,0.00,,,0.00,WUHU216HW,2013-06-26 00:08:00,
2013-06-25 20:13:00,78.4,68.2,30.25,NNE,23,0.0,0.0,71,0.00,,,0.00,WUHU216HW,2013-06-26 00:13:00,
2013-06-25 20:18:00,78.4,68.2,30.24,NNE,23,0.0,0.0,71,0.00,,,0.00,WUHU216HW,2013-06-26 00:18:00,
2013-06-25 20:23:00,78.4,68.2,30.24,NNE,23,0.0,0.0,71,0.00,,,0.00,WUHU216HW,2013-06-26 00:23:00,
2013-06-25 20:28:00,78.4,68.6,30.24,NNE,23,0.0,0.0,72,0.00,,,0.00,WUHU216HW,2013-06-26 00:28:00,
2013-06-25 20:33:00,77.9,68.1,30.24,NNE,23,0.0,0.0,72,0.00,,,0.00,WUHU216HW,2013-06-26 00:33:00,
2013-06-25 20:38:00,77.9,68.1,30.24,NNE,23,0.0,0.0,72,0.00,,,0.00,WUHU216HW,2013-06-26 00:38:00,
2013-06-25 20:43:00,77.5,67.8,30.24,NNE,23,0.0,0.0,72,0.00,,,0.00,WUHU216HW,2013-06-26 00:43:00,
2013-06-25 20:48:00,77.3,67.6,30.23,NNE,23,0.0,0.0,72,0.00,,,0.00,WUHU216HW,2013-06-26 00:48:00,
2013-06-25 20:53:00,77.3,67.6,30.24,NNE,23,0.0,0.0,72,0.00,,,0.00,WUHU216HW,2013-06-26 00:53:00,
2013-06-25 20:58:00,76.8,67.1,30.24,NNE,23,0.0,0.0,72,0.00,,,0.00,WUHU216HW,2013-06-26 00:58:00,
2013-06-25 21:03:00,76.8,67.1,30.24,NNE,23,0.0,0.0,72,0.00,,,0.00,WUHU216HW,2013-06-26 01:03:00,
2013-06-25 21:08:00,76.1,66.8,30.24,NNE,23,0.0,0.0,73,0.00,,,0.00,WUHU216HW,2013-06-26 01:08:00,
2013-06-25 21:13:00,76.1,66.8,30.24,NNE,23,0.0,0.0,73,0.00,,,0.00,WUHU216HW,2013-06-26 01:13:00,
2013-06-25 21:18:00,76.1,66.8,30.24,NNE,23,0.0,0.0,73,0.00,,,0.00,WUHU216HW,2013-06-26 01:18:00,
2013-06-25 21:23:00,75.2,65.9,30.24,NNE,23,0.0,0.0,73,0.00,,,0.00,WUHU216HW,2013-06-26 01:23:00,
2013-06-25 21:28:00,74.8,65.6,30.24,NNE,23,0.0,0.0,73,0.00,,,0.00,WUHU216HW,2013-06-26 01:28:00,
2013-06-25 21:33:00,74.4,65.6,30.24,NNE,23,0.0,0.0,74,0.00,,,0.00,WUHU216HW,2013-06-26 01:33:00,
2013-06-25 21:38:00,74.3,65.4,30.24,NE,45,0.0,0.0,74,0.00,,,0.00,WUHU216HW,2013-06-26 01:38:00,
2013-06-25 21:43:00,73.9,65.5,30.24,NNE,23,0.0,0.0,75,0.00,,,0.00,WUHU216HW,2013-06-26 01:43:00,
2013-06-25 21:48:00,73.7,65.3,30.25,NNE,23,0.0,0.0,75,0.00,,,0.00,WUHU216HW,2013-06-26 01:48:00,
2013-06-25 21:53:00,73.5,65.1,30.25,NNE,23,0.0,0.0,75,0.00,,,0.00,WUHU216HW,2013-06-26 01:53:00,
2013-06-25 21:58:00,73.2,65.2,30.25,NNE,23,0.0,0.0,76,0.00,,,0.00,WUHU216HW,2013-06-26 01:58:00,
2013-06-25 22:03:00,73.0,65.0,30.25,NNE,23,0.0,0.0,76,0.00,,,0.00,WUHU216HW,2013-06-26 02:03:00,
2013-06-25 22:08:00,72.6,64.6,30.25,NNE,23,0.0,0.0,76,0.00,,,0.00,WUHU216HW,2013-06-26 02:08:00,
2013-06-25 22:13:00,72.5,64.8,30.25,NNE,23,0.0,0.0,77,0.00,,,0.00,WUHU216HW,2013-06-26 02:13:00,
2013-06-25 22:18:00,72.3,64.7,30.25,NNE,23,0.0,0.0,77,0.00,,,0.00,WUHU216HW,2013-06-26 02:18:00,
2013-06-25 22:23:00,72.1,64.5,30.25,NNE,23,0.0,0.0,77,0.00,,,0.00,WUHU216HW,2013-06-26 02:23:00,
2013-06-25 22:28:00,71.9,64.3,30.26,NNE,23,0.0,0.0,77,0.00,,,0.00,WUHU216HW,2013-06-26 02:28:00,
2013-06-25 22:33:00,71.7,64.5,30.25,NNE,23,0.0,0.0,78,0.00,,,0.00,WUHU216HW,2013-06-26 02:33:00,
2013-06-25 22:38:00,71.4,64.1,30.25,NNE,23,0.0,0.0,78,0.00,,,0.00,WUHU216HW,2013-06-26 02:38:00,
2013-06-25 22:43:00,71.4,64.1,30.25,NNE,23,0.0,0.0,78,0.00,,,0.00,WUHU216HW,2013-06-26 02:43:00,
2013-06-25 22:48:00,71.2,64.0,30.25,NNE,23,0.0,0.0,78,0.00,,,0.00,WUHU216HW,2013-06-26 02:48:00,
2013-06-25 22:53:00,71.2,64.0,30.24,NNE,23,0.0,0.0,78,0.00,,,0.00,WUHU216HW,2013-06-26 02:53:00,
2013-06-25 22:58:00,70.8,63.6,30.24,NNE,23,0.0,0.0,78,0.00,,,0.00,WUHU216HW,2013-06-26 02:58:00,
2013-06-25 23:03:00,70.7,63.4,30.24,NE,45,0.0,0.0,78,0.00,,,0.00,WUHU216HW,2013-06-26 03:03:00,
2013-06-25 23:08:00,70.5,63.2,30.24,NE,45,0.0,0.0,78,0.00,,,0.00,WUHU216HW,2013-06-26 03:08:00,
2013-06-25 23:13:00,70.3,63.4,30.25,NE,45,0.0,0.0,79,0.00,,,0.00,WUHU216HW,2013-06-26 03:13:00,
2013-06-25 23:18:00,70.3,63.4,30.24,NE,45,0.0,0.0,79,0.00,,,0.00,WUHU216HW,2013-06-26 03:18:00,
2013-06-25 23:24:00,70.1,63.3,30.25,NE,45,0.0,0.0,79,0.00,,,0.00,WUHU216HW,2013-06-26 03:24:00,
2013-06-25 23:29:00,69.8,63.3,30.25,NE,45,0.0,0.0,80,0.00,,,0.00,WUHU216HW,2013-06-26 03:29:00,
2013-06-25 23:34:00,69.6,63.1,30.25,NE,45,0.0,0.0,80,0.00,,,0.00,WUHU216HW,2013-06-26 03:34:00,
2013-06-25 23:39:00,69.4,62.9,30.25,NNE,23,0.0,0.0,80,0.00,,,0.00,WUHU216HW,2013-06-26 03:39:00,
2013-06-25 23:44:00,69.0,62.9,30.24,NNE,23,0.0,0.0,81,0.00,,,0.00,WUHU216HW,2013-06-26 03:44:00,
2013-06-25 23:49:00,68.9,62.8,30.24,NNE,23,0.0,0.0,81,0.00,,,0.00,WUHU216HW,2013-06-26 03:49:00,
2013-06-25 23:54:00,68.9,62.8,30.24,NNE,23,0.0,0.0,81,0.00,,,0.00,WUHU216HW,2013-06-26 03:54:00,
2013-06-25 23:59:00,68.7,62.6,30.24,NNE,23,0.0,0.0,81,0.00,,,0.00,WUHU216HW,2013-06-26 03:59:00,